Location: Little Arabia
(41.4620°N, 81.7687°W)
Time: 20:54:54
(UTC+00:00)

Cosmos 1408 - Pass Details

Date: 29 October 2020
Orbit: 470 x 492 km, 82.6° (Epoch: 03 December)

Event Time Altitude Azimuth Distance (km) Brightness Sun altitude
Rises 22:56:53 0° 10° (N) 2,559 6.0 -6.6°
Reaches altitude 10° 22:59:40 10° 33° (NNE) 1,678 4.9 -7.1°
Maximum altitude 23:01:58 16° 72° (ENE) 1,355 4.2 -7.5°
Drops below altitude 10° 23:04:16 10° 112° (ESE) 1,677 4.8 -7.9°
Sets 23:07:02 0° 134° (SE) 2,556 5.9 -8.4°
